Regional Weather Roundup
Issued by NWS

Home | Current Version | Previous Version | Text Only | Print | Product List | Glossary On
Versions: 1 2 3 4 5 6 7 8 9 10 11 12 13 14 15 16 17 18 19 20 21 22 23 24 25 26 27 28 29 30 31 32 33 34 35 36 37 38 39 40 41 42 43 44 45 46 47 48 49 50
000
ASUS44 KOUN 080710
RWROK

WEATHER ROUNDUP FOR OKLAHOMA
NATIONAL WEATHER SERVICE NORMAN OK
100 AM CST THU DEC 08 2016

NOTE: "FAIR" INDICATES FEW OR NO CLOUDS BELOW 12,000 FEET WITH NO
      SIGNIFICANT WEATHER AND/OR OBSTRUCTIONS TO VISIBILITY.

OKZ001>007-009>012-014-015-017-080800-
NORTHWEST OKLAHOMA AND THE PANHANDLE

CITY           SKY/WX    TMP DP  RH WIND       PRES   REMARKS
GAGE           CLOUDY    24  15  68 N15       30.55S WCI  11
GUYMON         CLOUDY    18   9  68 N10       30.53R WCI   6
ENID/WOODRING  CLOUDY    25  21  86 N13       30.56R WCI  13
$$

OKZ016-021>023-033>039-044-045-080800-
SOUTHWEST OKLAHOMA

CITY           SKY/WX    TMP DP  RH WIND       PRES   REMARKS
LAWTON/REGL    PTCLDY    30  23  75 N20G30    30.53R WCI  17
LAWTON/FT SILL CLOUDY    29  24  81 N17       30.51R WCI  17
FREDERICK      PTCLDY    30  24  78 N22G28    30.50R WCI  17
CLINTON        CLOUDY    25  19  78 N14       30.55R WCI  13
HOBART         CLOUDY    27  21  78 N17       30.54R WCI  14
ALTUS AFB      CLOUDY    28  20  73 NE15G24   30.53R WCI  16
$$

OKZ018>020-024>031-080800-
CENTRAL OKLAHOMA

CITY           SKY/WX    TMP DP  RH WIND       PRES   REMARKS
OKLAHOMA CITY  CLOUDY    27  21  78 N21G26    30.53R WCI  13
OKC/WILEY POST PTCLDY    25  19  78 N16G26    30.55R WCI  12
OKC/TINKER AFB CLOUDY    27  22  81 N20       30.51R WCI  13
STILLWATER     CLOUDY    23  19  85 N6        30.56R WCI  16
GUTHRIE        CLOUDY    25  20  81 N8        30.56R WCI  16
$$

OKZ008-013-054>072-080800-
NORTHEAST OKLAHOMA

CITY           SKY/WX    TMP DP  RH WIND       PRES   REMARKS
TULSA          CLOUDY    25  22  88 N9        30.54R WCI  15
TULSA/JONES    MOCLDY    28  20  71 N13G18    30.55R WCI  17
PONCA CITY     CLEAR     23  16  74 N13       30.55S WCI  11
BARTLESVILLE   CLEAR     23  16  74 VRB6      30.56S WCI  16
MUSKOGEE       CLOUDY    29  24  82 N18G26    30.52R WCI  16
$$

OKZ032-040>043-046>053-073>077-080800-
SOUTH CENTRAL/SOUTHEAST OKLAHOMA

CITY           SKY/WX    TMP DP  RH WIND       PRES   REMARKS
ARDMORE/DWNTWN CLOUDY    32  25  74 N10G16    30.47R WCI  24
MCALESTER      PTCLDY    31  25  78 N14       30.47R WCI  21
$$





USA.gov is the U.S. government's official web portal to all federal, state and local government web resources and services.